Weather observations for the past three days for
DeFuniak Spr AP
Imperial (Metric)
Date Time (cdt) Wind (mph) Vis. (mi.) Weather Sky Cond. Temperature (ºF) Relative Humidity Wind Chill (°F) Heat Index (°F) Pressure Precipitation (in)
Air Dwpt 6 hour altimeter (in) sea level (mb) 1 hr 3 hr 6 hr
Max. Min.
14 21:15 Calm 10.00 Fair CLR 80.6 76.1 86% 87 30.1 0.0
14 20:55 Calm 10.00 Fair CLR 81.1 76.1 85% 88 30.1 0.0
14 20:35 SW 3 10.00 Fair CLR 81.5 75.7 83% 88 30.1 0.0
14 20:15 SW 5 10.00 Fair CLR 81.7 75.4 81% 88 30.09 0.0
14 19:55 Calm 10.00 Fair CLR 82.6 75.2 78% 90 30.08 0.0
14 19:35 SW 5 10.00 Fair CLR 83.3 75.2 77% 91 30.08 0.0
14 19:15 SW 5 10.00 Fair CLR 84.4 75 74% 93 30.08 0.0
14 18:55 SW 5 10.00 Partly Cloudy SCT090 85.5 74.7 95.7 85.5 70% 94 30.08 0.0
14 18:35 S 6 10.00 Mostly Cloudy SCT070 BKN090 87.3 74.7 66% 96 30.08 0.0
14 18:15 SW 5 10.00 Mostly Cloudy BKN080 89.4 74.8 62% 100 30.08 0.0
14 17:55 S 7 10.00 Partly Cloudy SCT080 89.6 73.2 59% 98 30.08 0.0
14 17:35 S 9 10.00 Partly Cloudy SCT046 SCT055 SCT065 90 72.7 57% 98 30.07 0.0
14 17:15 SW 9 10.00 Mostly Cloudy SCT044 BKN060 BKN070 90 73.8 59% 99 30.07 0.0
14 16:55 S 7 10.00 Overcast SCT048 BKN060 OVC085 90 73.8 59% 99 30.06 0.0
14 16:35 SW 12 G 16 10.00 Overcast SCT038 SCT043 OVC050 91.4 74.8 58% 102 30.06 0.0
14 16:15 S 7 10.00 Mostly Cloudy SCT038 BKN046 BKN065 93.2 76.1 58% 106 30.06 0.0
14 15:55 SW 6 10.00 Partly Cloudy SCT065 92.8 75 56% 104 30.07 0.0
14 15:35 E 5 10.00 Fair CLR 95.4 68.2 41% 100 30.07 0.0
14 15:15 S 3 10.00 Partly Cloudy SCT060 93.6 68.5 44% 98 30.08 0.0
14 14:55 Calm 10.00 Fair CLR 95 68.4 42% 100 30.08 0.0
14 14:35 N 6 10.00 Partly Cloudy SCT065 SCT070 94.5 68.9 43% 100 30.09 0.0
14 14:15 Calm 10.00 Partly Cloudy SCT065 93.6 69.4 45% 99 30.11 0.0
14 13:55 SE 6 10.00 Fair CLR 93.7 71.1 48% 101 30.12 0.0
14 13:15 Calm 10.00 Partly Cloudy SCT047 92.3 70.9 50% 99 30.13 0.0
14 12:55 NE 5 10.00 Partly Cloudy SCT065 93.4 70.3 93.6 76.1 47% 100 30.15 0.0
14 12:35 Calm 10.00 Partly Cloudy SCT044 SCT055 92.3 71.6 51% 100 30.15 0.0
14 12:15 SE 3 10.00 Mostly Cloudy BKN044 91 70.9 52% 97 30.16 0.0
14 11:55 E 5 10.00 Partly Cloudy SCT042 91.9 72.1 52% 100 30.16 0.0
14 11:35 Calm 10.00 Fair CLR 90.5 71.8 54% 98 30.17 0.0
14 11:15 Calm 10.00 Fair CLR 90.3 72.3 56% 98 30.17 0.0
14 10:55 Calm 10.00 Fair CLR 88 72.1 59% 95 30.17 0.0
14 10:35 W 3 10.00 Fair CLR 88.5 72.9 60% 96 30.18 0.0
14 10:15 Calm 10.00 Fair CLR 88.5 73.6 61% 97 30.17 0.0
14 09:55 Calm 10.00 Fair CLR 86.2 74.5 68% 95 30.18 0.0
14 09:35 N 6 10.00 Fair CLR 86 75 70% 95 30.18 0.0
14 09:15 Calm 10.00 Fair CLR 84.6 75.6 74% 93 30.18 0.0
14 08:55 Calm 10.00 Fair CLR 83.3 76.3 79% 92 30.18 0.0
14 08:35 Calm 10.00 Fair CLR 82 77.2 85% 90 30.18 0.0
14 08:15 Calm 10.00 Fair CLR 81 77 88% 88 30.18 0.0
14 07:55 Calm 10.00 Fair CLR 79.2 77 93% 84 30.18 0.0
14 07:35 Calm 10.00 Fair CLR 77.7 76.8 97% 80 30.18 0.0
14 07:15 Calm 7.00 Fair CLR 77 76.1 97% 78 30.18 0.0
14 06:55 Calm 5.00 Fog/Mist CLR 75.7 75.2 77.9 73.6 98% 74 30.18 0.0
14 06:35 Calm 4.00 Fog/Mist CLR 75.2 74.7 98% 73 30.17 0.0
14 06:15 Calm 1.00 Fog/Mist BKN007 74.5 73.8 98% 30.17 0.0
14 05:55 S 3 2.50 Thunderstorm in Vicinity Fog/Mist SCT007 74.1 73.4 98% 30.16 0.0
14 05:35 Calm 1.50 Fog/Mist BKN007 74.3 73.6 98% 30.15 0.0
14 05:15 Calm 7.00 Fair CLR 75 73.9 96% 73 30.15 0.0
14 04:55 Calm 10.00 Fair CLR 75.4 74.5 97% 74 30.14 0.0
14 04:35 Calm 4.00 Fog/Mist CLR 75.2 74.3 97% 73 30.13 0.0
14 04:15 Calm 7.00 Fair CLR 74.8 73.9 97% 30.13 0.0
14 03:55 Calm 7.00 Fair CLR 76.5 75.2 96% 76 30.13 0.0
14 03:35 Calm 7.00 Fair CLR 76.6 75.6 96% 77 30.13 0.0
14 03:15 Calm 10.00 Fair CLR 77 75.7 96% 78 30.12 0.0
14 02:55 NW 5 10.00 Fair CLR 77.5 76.1 95% 79 30.13 0.0
14 02:35 NW 5 10.00 Fair CLR 77.9 76.3 95% 80 30.13 0.0
14 02:15 NW 3 10.00 Fair CLR 77.9 76.1 94% 80 30.13 0.0
14 01:55 Calm 10.00 Fair CLR 77.9 76.3 95% 80 30.14 0.0
14 01:35 Calm 10.00 Fair CLR 77.9 76.3 95% 80 30.15 0.0
14 01:15 Calm 10.00 Fair CLR 77.9 76.1 94% 80 30.16 0.0
14 00:55 Calm 10.00 Fair CLR 77.7 76.1 80.8 76.5 95% 80 30.16 0.0
14 00:35 Calm 10.00 Fair CLR 77.5 76.1 95% 79 30.17 0.0
14 00:15 Calm 10.00 Fair CLR 77.2 76.1 96% 78 30.17 0.0
13 23:55 Calm 10.00 Fair CLR 77.4 76.1 96% 79 30.17 0.0
13 23:35 Calm 10.00 Fair CLR 77.5 76.1 95% 79 30.18 0.0
13 23:15 Calm 10.00 Fair CLR 78.1 76.3 94% 81 30.18 0.0
13 22:55 W 3 10.00 Fair CLR 78.1 76.5 95% 81 30.18 0.0
13 22:35 Calm 10.00 Fair CLR 78.3 76.5 94% 81 30.19 0.0
13 22:15 Calm 10.00 Fair CLR 78.3 76.5 94% 81 30.18 0.0
13 21:55 SW 3 10.00 Fair CLR 78.3 76.5 94% 81 30.17 0.0
13 21:35 Calm 10.00 Fair CLR 78.3 76.3 94% 81 30.17 0.0
13 21:15 Calm 10.00 Fair CLR 78.6 76.1 92% 82 30.17 0.0
13 20:55 Calm 10.00 Fair CLR 78.8 76.1 91% 83 30.17 0.0
13 20:35 S 3 10.00 Fair CLR 78.8 76.1 91% 83 30.16 0.0
13 20:15 Calm 10.00 Partly Cloudy SCT095 79 75.9 90% 83 30.16 0.0
13 19:55 SW 3 10.00 Partly Cloudy SCT095 SCT110 79 75.7 90% 83 30.16 0.0
13 19:35 Calm 10.00 Mostly Cloudy BKN110 79.9 76.1 88% 85 30.16 0.0
13 19:15 Calm 10.00 Partly Cloudy SCT110 80.6 76.3 87% 87 30.16 0.0
13 18:55 Calm 10.00 Fair CLR 80.6 76.1 93.9 80.6 86% 87 30.16 0.0
13 18:35 Calm 10.00 Partly Cloudy SCT055 81.1 75.7 84% 88 30.16 0.0
13 18:15 SW 5 10.00 Partly Cloudy SCT055 81.5 75.6 82% 88 30.16 0.0
13 17:55 SW 5 10.00 Fair CLR 81.5 75.2 81% 88 30.15 0.0
13 17:35 SW 5 10.00 Fair CLR 81.7 74.5 79% 88 30.15 0.0
13 17:15 SW 5 10.00 Fair CLR 82.2 73.8 76% 88 30.15 0.0
13 16:55 S 3 10.00 Fair CLR 82.8 73.4 73% 89 30.15 0.0
13 16:35 S 5 10.00 Fair CLR 83.3 72.3 70% 89 30.15 0.0
13 16:15 S 6 10.00 Thunderstorm in Vicinity CLR 84.9 73.8 69% 92 30.16 0.0
13 15:55 S 7 10.00 Partly Cloudy SCT050 84.9 73.2 68% 92 30.15 0.0
13 15:35 S 5 10.00 Mostly Cloudy BKN050 87.1 72.3 62% 94 30.15 0.0
13 15:15 S 7 10.00 Fair CLR 91.9 70.2 49% 98 30.15 0.0
13 14:55 N 3 10.00 Partly Cloudy SCT065 SCT110 92.3 70.9 50% 99 30.16 0.0
13 14:35 Calm 10.00 Overcast BKN055 BKN075 OVC120 91.4 69.3 48% 96 30.17 0.0
13 14:15 N 7 10.00 Mostly Cloudy BKN055 BKN075 BKN110 92.5 70.7 49% 99 30.17 0.0
13 13:55 Calm 10.00 Partly Cloudy SCT095 92.8 69.1 46% 98 30.18 0.0
13 13:35 E 5 10.00 Partly Cloudy SCT075 SCT095 91.8 70.5 50% 98 30.18 0.0
13 13:15 NW 3 10.00 Mostly Cloudy SCT047 BKN075 BKN085 90.5 71.2 53% 97 30.19 0.0
13 12:55 W 3 10.00 Mostly Cloudy BKN047 90.1 70.9 92.5 75.9 53% 96 30.19 0.0
13 12:35 Calm 10.00 Fair CLR 91.6 69.3 48% 97 30.19 0.0
13 12:15 N 3 10.00 Fair CLR 91.6 69.4 48% 97 30.2 0.0
13 11:55 Calm 10.00 Fair CLR 90.3 70.3 52% 96 30.2 0.0
13 11:35 Calm 10.00 Fair CLR 89.2 71.8 56% 96 30.21 0.0
13 11:15 Calm 10.00 Fair CLR 89.8 72.3 57% 97 30.21 0.0
13 10:55 Calm 10.00 Partly Cloudy SCT100 87.8 71.1 58% 94 30.21 0.0
13 10:35 N 5 10.00 Partly Cloudy SCT100 87.3 73 63% 95 30.22 0.0
13 10:15 NW 3 10.00 Fair CLR 86.5 73.4 65% 94 30.21 0.0
13 09:55 N 5 10.00 Fair CLR 85.8 73.4 67% 93 30.21 0.0
13 09:35 NW 5 10.00 Fair CLR 84.6 73.9 71% 92 30.22 0.0
13 09:15 NW 3 10.00 Fair CLR 84.2 73.2 70% 91 30.22 0.0
13 08:55 NW 3 10.00 Fair CLR 83.5 72.9 70% 90 30.21 0.0
13 08:35 N 5 10.00 Fair CLR 82.8 74.5 76% 90 30.21 0.0
13 08:15 NW 5 10.00 Fair CLR 81.5 74.5 79% 87 30.2 0.0
13 07:55 NW 6 10.00 Fair CLR 80.4 74.5 82% 85 30.21 0.0
13 07:35 Calm 10.00 Fair CLR 78.8 73.9 85% 82 30.2 0.0
13 07:15 Calm 10.00 Fair CLR 77.9 73.4 86% 80 30.2 0.0
13 06:55 Calm 10.00 Fair CLR 75.6 72.7 77.4 72.5 91% 75 30.19 0.0
13 06:35 Calm 10.00 Partly Cloudy SCT095 74.3 72.7 95% 30.18 0.0
13 06:15 Calm 10.00 Fair CLR 72.9 71.6 96% 30.17 0.0
13 05:55 S 3 10.00 Fair CLR 72.7 71.1 95% 30.17 0.0
13 05:35 Calm 10.00 Fair CLR 73 70.9 93% 30.16 0.0
13 05:15 Calm 10.00 Fair CLR 72.9 71.1 94% 30.15 0.0
13 04:55 Calm 10.00 Fair CLR 75.2 71.1 87% 75 30.14 0.0
13 04:35 NW 3 10.00 Fair CLR 75.4 71.2 87% 75 30.14 0.0
13 04:15 NW 3 10.00 Fair CLR 74.8 71.2 89% 30.13 0.0
13 03:55 Calm 10.00 Fair CLR 74.7 71.8 91% 30.13 0.0
13 03:35 Calm 10.00 Fair CLR 75.4 71.8 89% 75 30.12 0.0
13 03:15 Calm 10.00 Fair CLR 74.3 71.6 91% 30.11 0.0
13 02:55 Calm 10.00 Fair CLR 74.3 72.5 94% 30.11 0.0
13 02:35 Calm 10.00 Fair CLR 74.7 71.8 91% 30.11 0.0
13 02:15 Calm 7.00 Fair CLR 75.2 72 90% 75 30.11 0.0
13 01:55 Calm 10.00 Fair CLR 76.1 72.1 88% 76 30.12 0.0
13 01:35 Calm 10.00 Fair CLR 77.4 72.1 84% 79 30.11 0.0
13 01:15 Calm 10.00 Fair CLR 77.4 72.7 86% 79 30.12 0.0
13 00:55 Calm 10.00 Fair CLR 77.5 72.7 84.4 77 85% 79 30.12 0.0
13 00:35 NW 3 10.00 Fair CLR 77.9 73.4 86% 80 30.13 0.0
13 00:15 Calm 10.00 Fair CLR 77.4 73.4 88% 79 30.14 0.0
12 23:55 Calm 10.00 Partly Cloudy SCT120 77.7 73.4 87% 80 30.15 0.0
12 23:35 Calm 10.00 Mostly Cloudy BKN120 79 73.4 83% 82 30.15 0.0
12 23:15 Calm 10.00 Mostly Cloudy BKN120 78.1 73.6 86% 81 30.14 0.0
12 22:55 Calm 10.00 Partly Cloudy SCT110 77.4 73.2 87% 79 30.14 0.0
12 22:35 Calm 10.00 Partly Cloudy SCT100 77.5 73.2 87% 79 30.15 0.0
12 22:15 Calm 10.00 Fair CLR 77.9 72.7 84% 80 30.15 0.0
12 21:55 Calm 10.00 Partly Cloudy SCT110 79 72.5 81% 82 30.13 0.0
12 21:35 Calm 10.00 Mostly Cloudy BKN110 79.2 72.3 80% 82 30.13 0.0
12 21:15 Calm 10.00 Fair CLR 79.5 72.3 79% 83 30.12 0.0
12 20:55 Calm 10.00 Fair CLR 80.6 72.1 76% 85 30.11 0.0
12 20:35 Calm 10.00 Partly Cloudy SCT070 SCT110 80.1 73 79% 84 30.11 0.0
12 20:15 Calm 10.00 Mostly Cloudy BKN100 81.9 72.5 73% 87 30.11 0.0
12 19:55 Calm 10.00 Overcast OVC100 82.4 72.7 73% 88 30.11 0.0
12 19:35 SW 3 10.00 Overcast SCT070 OVC100 83.3 72.5 70% 89 30.11 0.0
12 19:15 Calm 10.00 Overcast OVC100 83.8 72.5 69% 90 30.1 0.0
12 18:55 W 5 10.00 Overcast OVC100 84.4 72.5 93.6 84.4 68% 90 30.1 0.0
12 18:35 SW 6 10.00 Mostly Cloudy BKN110 84.7 73 68% 91 30.09 0.0
12 18:15 SW 6 10.00 Partly Cloudy SCT110 85.8 72.7 65% 93 30.08 0.0
12 17:55 SW 6 10.00 Partly Cloudy SCT095 86 71.2 61% 92 30.07 0.0
12 17:35 SW 6 10.00 Partly Cloudy SCT095 88.7 71.6 57% 95 30.06 0.0
12 17:15 S 3 10.00 Mostly Cloudy BKN080 BKN100 87.8 73.4 62% 96 30.06 0.0
12 16:55 Calm 10.00 Mostly Cloudy BKN080 BKN100 90.1 69.8 51% 95 30.06 0.0
12 16:35 N 5 10.00 Mostly Cloudy BKN090 91.4 66.6 44% 94 30.05 0.0
12 16:15 NW 6 10.00 Partly Cloudy SCT080 93.2 66.4 41% 96 30.05 0.0
12 15:55 N 5 10.00 Fair CLR 93.4 66.4 41% 97 30.06 0.0
12 15:35 N 5 10.00 Fair CLR 93.2 66.6 42% 97 30.06 0.0
12 15:15 NW 9 10.00 Fair CLR 92.5 66.6 43% 96 30.06 0.0
12 14:55 N 8 10.00 Fair CLR 92.5 66 42% 95 30.07 0.0
12 14:35 NW 8 10.00 Fair CLR 92.3 66.4 43% 95 30.08 0.0
12 14:15 N 9 10.00 Fair CLR 92.5 66.7 43% 96 30.08 0.0
12 13:55 N 6 10.00 Partly Cloudy SCT060 SCT085 92.7 66.4 42% 96 30.09 0.0
12 13:35 N 6 10.00 Mostly Cloudy SCT060 SCT070 BKN085 91.8 65.8 42% 94 30.1 0.0
12 13:15 N 3 10.00 Partly Cloudy SCT065 SCT085 91.8 65.7 42% 94 30.1 0.0
12 12:55 N 9 10.00 Fair CLR 91.6 65.3 91.9 76.3 42% 94 30.1 0.0
12 12:35 N 7 10.00 Fair CLR 91.6 65.7 42% 94 30.1 0.0
12 12:15 N 7 10.00 Fair CLR 91.6 65.7 42% 94 30.11 0.0
12 11:55 NE 3 10.00 Fair CLR 91.2 66.6 44% 94 30.11 0.0
12 11:35 N 8 10.00 Fair CLR 90.3 67.5 47% 94 30.11 0.0
12 11:15 NW 6 10.00 Fair CLR 89.8 65.8 45% 92 30.11 0.0
12 10:55 N 5 10.00 Fair CLR 88.9 69.8 53% 94 30.1 0.0
12 10:35 NW 6 10.00 Fair CLR 88 70.3 56% 93 30.1 0.0
12 10:15 N 5 10.00 Fair CLR 88 72.7 61% 95 30.1 0.0
12 09:55 N 7 10.00 Fair CLR 86 71.4 62% 92 30.1 0.0
12 09:35 NW 7 10.00 Fair CLR 84.9 71.4 64% 90 30.1 0.0
12 08:55 NW 6 10.00 Fair CLR 82.9 72 70% 88 30.09 0.0
12 08:35 N 5 10.00 Fair CLR 81.9 73 75% 87 30.09 0.0
12 08:15 NW 3 10.00 Fair CLR 80.1 72.5 78% 84 30.08 0.0
12 07:55 NW 6 10.00 Fair CLR 78.8 72 80% 82 30.08 0.0
12 07:35 NW 6 10.00 Fair CLR 77.9 71.8 82% 80 30.07 0.0
12 07:15 NW 6 10.00 Fair CLR 76.5 71.4 84% 77 30.07 0.0
12 06:55 NW 7 10.00 Fair CLR 76.1 71.2 76.1 73.9 85% 77 30.07 0.0
12 06:35 NW 6 10.00 Fair CLR 75 71.2 88% 74 30.06 0.0
12 06:15 NW 5 10.00 Fair CLR 74.3 71.1 90% 30.06 0.0
12 05:55 NW 5 10.00 Fair CLR 73.9 70.9 90% 30.05 0.0
12 05:35 NW 5 10.00 Fair CLR 74.3 70.9 89% 30.05 0.0
12 05:15 NW 5 10.00 Fair CLR 74.3 71.1 90% 30.05 0.0
12 04:55 NW 5 10.00 Fair CLR 74.7 70.9 88% 30.04 0.0
12 04:35 NW 6 10.00 Fair CLR 75 70.7 86% 75 30.04 0.0
12 04:15 NW 5 10.00 Fair CLR 75.2 70.7 86% 75 30.04 0.0
12 03:55 NW 5 10.00 Fair CLR 74.8 70.7 87% 30.03 0.0
12 02:55 NW 5 10.00 Fair CLR 75.4 71.1 87% 75 30.02 0.0
12 02:35 NW 3 10.00 Fair CLR 75.4 70.9 86% 75 30.02 0.0
12 02:15 Calm 10.00 Fair CLR 75.4 70.7 85% 75 30.02 0.0
12 01:55 Calm 10.00 Fair CLR 75.6 70.7 85% 76 30.02 0.0
12 01:35 Calm 10.00 Fair CLR 75.4 70.7 85% 75 30.02 0.0
12 01:15 Calm 10.00 Fair CLR 75.4 70.7 85% 75 30.03 0.0
12 00:55 Calm 10.00 Fair CLR 76.1 70.7 88.3 76.1 83% 77 30.03 0.0
12 00:35 Calm 10.00 Fair CLR 76.3 70.7 83% 77 30.04 0.0
12 00:15 Calm 10.00 Fair CLR 76.6 70.9 82% 78 30.04 0.0
11 23:55 Calm 10.00 Fair CLR 76.5 71.1 83% 77 30.04 0.0
11 23:35 Calm 10.00 Fair CLR 77.4 70.9 81% 79 30.04 0.0
11 23:15 Calm 10.00 Fair CLR 76.3 71.6 86% 77 30.04 0.0
11 22:55 Calm 10.00 Fair CLR 77.2 71.2 82% 79 30.04 0.0
11 22:35 Calm 10.00 Fair CLR 77.5 70.7 80% 79 30.04 0.0
11 22:15 SW 3 10.00 Fair CLR 78.1 70.7 78% 80 30.03 0.0
11 21:55 SW 3 10.00 Fair CLR 78.6 70.9 77% 81 30.03 0.0
11 21:35 SW 3 10.00 Fair CLR 79.5 70.7 75% 83 30.03 0.0
Date Time (cdt) Wind (mph) Vis. (mi.) Weather Sky Cond. Air Dwpt Max. Min. Relative Humidity Wind Chill (°F) Heat Index (°F) altimeter (in) sea level (mb) 1 hr 3 hr 6 hr
6 hour
Temperature (ºF) Pressure Precipitation (in)